Regional Weather Roundup
Issued by NWS

Home | Current Version | Previous Version | Graphics & Text | Print | Product List | Glossary On
Versions: 1 2 3 4 5 6 7 8 9 10 11 12 13 14 15 16 17 18 19 20 21 22 23 24 25 26 27 28 29 30 31 32 33 34 35 36 37 38 39 40 41 42 43 44 45 46 47 48 49 50
000
ASUS43 KLMK 231702
RWRKY
KENTUCKY REGIONAL WEATHER ROUNDUP
NATIONAL WEATHER SERVICE LOUISVILLE KY
100 PM EDT MON MAY 23 2016

NOTE "FAIR" INDICATES FEW OR NO CLOUDS BELOW 12,000 FEET
WITH NO SIGNIFICANT WEATHER AND/OR OBSTRUCTIONS TO VISIBILITY.

KYZ001>023-026-027-061>063-070>075-231800-
WESTERN AND SOUTH CENTRAL KENTUCKY

CITY           SKY/WX    TMP DP  RH WIND       PRES   REMARKS
PADUCAH        SUNNY     81  52  36 VRB3      30.01S
HENDERSON      SUNNY     75  54  46 E13       29.99F
OWENSBORO      SUNNY     78  52  40 E8        30.02F
HOPKINSVILLE   SUNNY     78  54  44 E8        30.01S
BOWLING GREEN  SUNNY     77  51  40 E9        30.02F
GLASGOW        NOT AVBL
$$

KYZ024-025-028>034-038-045-046-053-231800-
NORTH CENTRAL KENTUCKY

CITY           SKY/WX    TMP DP  RH WIND       PRES   REMARKS
LOUISVILLE/SDF SUNNY     76  41  28 NE9       30.04F
LOUISVILLE/LOU SUNNY     75  41  29 MISG      30.05S
FORT KNOX      SUNNY     73  47  38 VRB3      30.03S
$$

KYZ035>037-039>044-047>052-055>060-089>105-231800-
NORTHEAST KENTUCKY

CITY           SKY/WX    TMP DP  RH WIND       PRES   REMARKS
LEXINGTON      SUNNY     73  47  39 E9        30.06F
COVINGTON      MOSUNNY   73  48  41 E8        30.06F
FRANKFORT      SUNNY     73  48  41 VRB5      30.05F
$$

KYZ054-064>069-076>088-106>120-231800-
SOUTHEAST KENTUCKY

CITY           SKY/WX    TMP DP  RH WIND       PRES   REMARKS
JACKSON        PTSUNNY   69  50  50 CALM      30.07F
LONDON         SUNNY     71  47  42 E7        30.05F
SOMERSET       NOT AVBL
MIDDLESBORO    SUNNY     72  46  39 E3        30.04F
MONTICELLO     SUNNY     72  49  44 VRB6G22   30.05F
$$





USA.gov is the U.S. government's official web portal to all federal, state and local government web resources and services.